Regional Weather Roundup
Issued by NWS

Home | Current Version | Previous Version | Text Only | Print | Product List | Glossary Off
Versions: 1 2 3 4 5 6 7 8 9 10 11 12 13 14 15 16 17 18 19 20 21 22 23 24 25 26 27 28 29 30 31 32 33 34 35 36 37 38 39 40 41 42 43 44 45 46 47

000
ASUS43 KDMX 130007
RWRIA

WEATHER ROUNDUP FOR IOWA
NATIONAL WEATHER SERVICE DES MOINES IA
700 PM CDT SAT JUL 12 2014

NOTE: "FAIR" INDICATES FEW OR NO CLOUDS BELOW 12,000 FEET WITH NO
SIGNIFICANT WEATHER AND/OR OBSTRUCTIONS TO VISIBILITY.

* - THESE STATIONS ARE NOT NWS STATIONS...THUS NOT UNDER NWS
QUALITY CONTROL.  THEY ALSO DO NOT REPORT WEATHER SUCH
AS PRECIPITATION OR FOG.

IAZ001>003-012>014-020>022-031>034-043>046-130100-
   NORTHWEST IOWA

CITY           SKY/WX    TMP DP  RH WIND       PRES   REMARKS
CARROLL *      PTSUNNY   72  68  88 N7        29.97S
CHEROKEE *     MOSUNNY   75  69  83 CALM      29.99S
DENISON *      MOSUNNY   73  70  88 N8        29.96F
LE MARS *      PTSUNNY   77  70  78 NW3       30.01S
ORANGE CITY *  SUNNY     79  70  73 W7        30.01S HX  81
SHELDON *      SUNNY     79  66  65 W7        29.99S HX  81
SIOUX CITY     MOSUNNY   77  69  76 W5        29.99F
6HR MIN TEMP:  73; 6HR MAX TEMP:  79; 6HR PCP: TRACE;

SPENCER        MOSUNNY   78  69  73 W8        29.98F HX  80
6HR MIN TEMP:  68; 6HR MAX TEMP:  78; 6HR PCP:  0.08;

STORM LAKE *   SUNNY     73  70  88 W6        29.99F
$$

IAZ055>058-069>071-079>083-090>094-130100-
   SOUTHWEST IOWA

CITY           SKY/WX    TMP DP  RH WIND       PRES   REMARKS
ATLANTIC *     PTSUNNY   77  72  83 NE10      29.96R
AUDUBON *      PTSUNNY   75  72  88 N7        29.98S
CLARINDA *     SUNNY     82  77  83 CALM      29.94R HX  91
COUNCIL BLFS * SUNNY     79  73  83 N8        29.95F HX  82
CRESTON *      PTSUNNY   77  72  83 S6G13     29.96R
HARLAN  *      PTSUNNY   75  72  88 N8        29.99F
LAMONI         PTSUNNY   83  73  72 SW9       29.94R HX  89
6HR MIN TEMP:  83; 6HR MAX TEMP:  90;

RED OAK *      PTSUNNY   81  75  83 N12G18    29.95R HX  86
SHENANDOAH *   SUNNY     82  75  78 N16G22    29.93R HX  89
$$

IAZ047>049-059>061-072>074-084-130100-
   CENTRAL IOWA

CITY           SKY/WX    TMP DP  RH WIND       PRES   REMARKS
AMES           CLOUDY    72  68  87 N14       29.95R
6HR MIN TEMP:  72; 6HR MAX TEMP:  83; 6HR PCP: TRACE;

ANKENY *       CLOUDY    79  72  78 N12G21    29.93R HX  82
CHARITON *     RAIN      75  72  88 N9G21     29.90R
DES MOINES     CLOUDY    81  72  74 N9        29.93R HX  85
6HR MIN TEMP:  81; 6HR MAX TEMP:  91; 6HR PCP: TRACE;

GRINNELL*      PTSUNNY   81  74  79 N7        29.91S HX  86
KNOXVILLE *    CLOUDY    73  70  88 S9G16     29.89F
MARSHALLTOWN   CLOUDY    69  67  93 N16       29.96R
6HR MIN TEMP:  69; 6HR MAX TEMP:  82;

PELLA *        DRIZZLE   76  73  93 W3        29.92F
PERRY *        PTSUNNY   72  68  88 N9        29.96S
$$

IAZ004>006-015-016-023>025-035-036-130100-
   NORTH CENTRAL IOWA

CITY           SKY/WX    TMP DP  RH WIND       PRES   REMARKS
ALGONA *       MOSUNNY   73  68  83 W7        29.97F
CLARION *      PTSUNNY   70  68  94 CALM      29.95F
ESTHERVILLE    MOSUNNY   78  66  66 N7        29.97F HX  80
6HR MIN TEMP:  68; 6HR MAX TEMP:  79; 6HR PCP:  0.02;

FORT DODGE *   PTSUNNY   70  66  88 W3        29.97F
MASON CITY     MOSUNNY   72  67  84 SW7       29.96F
6HR MIN TEMP:  68; 6HR MAX TEMP:  74; 6HR PCP:  0.24;

FOREST CITY *  SUNNY     73  68  83 W5        29.96S
IOWA FALLS *   LGT RAIN  68  66  94 N7        29.97F
$$

IAZ007>011-017>019-026>030-037>042-050>054-066-130100-
   NORTHEAST IOWA

CITY           SKY/WX    TMP DP  RH WIND       PRES   REMARKS
CEDAR RAPIDS   PTSUNNY   79  67  66 CALM      29.88S HX  81
6HR MIN TEMP:  79; 6HR MAX TEMP:  85;

CHARLES CITY * CLOUDY    68  66  94 CALM      29.95F
CLINTON *      CLOUDY    73  70  88 CALM      29.92S
DECORAH *        N/A    N/A N/A N/A MISG        N/A
DUBUQUE        PTSUNNY   79  72  79 CALM      29.90F HX  82
6HR MIN TEMP:  76; 6HR MAX TEMP:  81;

MONTICELLO *   CLOUDY    81  75  83 CALM      29.88F HX  86
OELWEIN *      LGT RAIN  66  66 100 N15       29.96R
WATERLOO       LGT RAIN  67  64  90 NW10      29.97R
6HR MIN TEMP:  67; 6HR MAX TEMP:  80; 6HR PCP:  0.01;

$$

IAZ064-065-067-068-078-130100-
   EAST CENTRAL IOWA

CITY           SKY/WX    TMP DP  RH WIND       PRES   REMARKS
DAVENPORT      CLOUDY    82  75  79 S7        29.89F HX  89
6HR MIN TEMP:  80; 6HR MAX TEMP:  86;

IOWA CITY      CLOUDY    77  68  73 E6        29.87F THUNDER
6HR MIN TEMP:  77; 6HR MAX TEMP:  87; 6HR PCP:  0.05;

MT. PLEASANT * SUNNY     86  72  62 S10G16    29.90R HX  92
MUSCATINE *    SUNNY     86  77  74 CALM      29.88S HX  97
QUAD CITIES    PTSUNNY   84  74  71 S6        29.89F HX  91
6HR MIN TEMP:  81; 6HR MAX TEMP:  88;

$$

IAZ062-063-075>077-085>089-095>099-130100-
   SOUTHEAST IOWA

CITY           SKY/WX    TMP DP  RH WIND       PRES   REMARKS
BURLINGTON     MOSUNNY   86  74  67 SW13      29.91S HX  94
6HR MIN TEMP:  85; 6HR MAX TEMP:  89;

FAIRFIELD *    MOSUNNY   84  73  70 SW6       29.90S HX  91
FORT MADISON * SUNNY     88  75  66 SW9G16    29.93R HX  97
KEOKUK *       SUNNY     86  75  70 SW12      29.91R HX  95
OSKALOOSA *    HVY RAIN  74  73  95 W17       29.92R
CENTERVILLE *  SUNNY     84  75  74 S8        29.93R HX  92
OTTUMWA        PTSUNNY   83  73  72 W5        29.89R HX  89
6HR MIN TEMP:  83; 6HR MAX TEMP:  89;

WASHINGTON *   SUNNY     84  77  79 SW8       29.88F HX  94
$$

ABBREVIATIONS USED IN REMARKS
   TC - TEMPERATURES IN CELSIUS
  WCI - WIND CHILL INDEX
   HX - HEAT INDEX
  VSB - VISIBILITY
$$



USA.gov is the U.S. government's official web portal to all federal, state and local government web resources and services.